This is the latest recevied weather packets stored in our database for station/object N9ALD. If no packets are shown the sender has not sent any weather packets the latest 10 day(s).
| Time | Temp. | Humidity | Pressure | Rain* | Wind** | Luminosity | Snow |
|---|---|---|---|---|---|---|---|
| 1777430017 | 13.89° C | 85% | 1009.3 hPa | 0 mm | - | 0 W/m² | - |
| 1777429106 | 13.89° C | 86% | 1009.3 hPa | 0 mm | - | 0 W/m² | - |
| 1777428803 | 13.89° C | 84% | 1009.4 hPa | 0 mm | - | 0 W/m² | - |
| 1777428499 | 13.89° C | 85% | 1009.6 hPa | 0 mm | - | 0 W/m² | - |
| 1777427890 | 14.44° C | 86% | 1009.8 hPa | 0 mm | - | 0 W/m² | - |
| 1777426678 | 14.44° C | 83% | 1009.7 hPa | 0 mm | - | 0 W/m² | - |
| 1777426374 | 14.44° C | 82% | 1009.7 hPa | 0 mm | - | 0 W/m² | - |
| 1777425765 | 15° C | 81% | 1009.8 hPa | 0 mm | - | 0 W/m² | - |
| 1777424244 | 15° C | 80% | 1009.6 hPa | 0 mm | - | 0 W/m² | - |
| 1777423027 | 15.56° C | 80% | 1010.2 hPa | 0 mm | - | 1 W/m² | - |
| 1777422724 | 15.56° C | 79% | 1010.4 hPa | 0 mm | - | 1 W/m² | - |
| 1777422418 | 15.56° C | 79% | 1010.6 hPa | 0 mm | - | 2 W/m² | - |
| 1777420598 | 16.11° C | 76% | 1011 hPa | 0 mm | - | 13 W/m² | - |
| 1777419084 | 16.67° C | 75% | 1011 hPa | 0 mm | - | 31 W/m² | - |
| 1777414233 | 17.78° C | 71% | 1009.8 hPa | 0 mm | - | 173 W/m² | - |
| 1777413928 | 17.78° C | 70% | 1009.9 hPa | 0 mm | - | 172 W/m² | - |
| 1777413624 | 17.78° C | 69% | 1009.8 hPa | 0 mm | - | 180 W/m² | - |
| 1777412716 | 18.33° C | 67% | 1010.3 hPa | 0 mm | - | 208 W/m² | - |
| 1777412114 | 17.78° C | 69% | 1010 hPa | 0 mm | - | 217 W/m² | - |
| 1777411508 | 18.33° C | 69% | 1010.1 hPa | 0 mm | - | 224 W/m² | - |
| 1777410897 | 18.33° C | 70% | 1010.1 hPa | 0 mm | - | 271 W/m² | - |
| 1777408471 | 18.89° C | 69% | 1011.4 hPa | 0 mm | - | 555 W/m² | - |
| 1777408166 | 18.89° C | 70% | 1011.4 hPa | 0 mm | - | 562 W/m² | - |
| 1777407560 | 18.89° C | 66% | 1011.4 hPa | 0 mm | - | 614 W/m² | - |
| 1777407259 | 18.89° C | 66% | 1011.6 hPa | 0 mm | - | 607 W/m² | - |
* Rain latest hour (hover to see other rain measurements)
** Current wind speed in m/s (hover to see current wind gust speed)